Location: Bothwell
(42.3833°S, 147.0000°E)
Time: 17:05:49
(UTC+10:00)

ISS - Visible Passes

Search period start: 28 September 2022 00:00
Search period end: 08 October 2022 01:00
Orbit: 414 x 417 km, 51.6° (Epoch: 28 September)

Date Brightness Start Highest point End Pass type
(mag) Time Alt. Az. Time Alt. Az. Time Alt. Az.
28 Sep -2.4 03:40:41 39° SE 03:40:41 39° SE 03:43:00 10° SE visible
28 Sep -1.8 05:14:09 10° WSW 05:16:48 20° SSW 05:19:28 10° SE visible
29 Sep -0.4 02:53:50 13° ESE 02:53:50 13° ESE 02:54:18 10° ESE visible
29 Sep -2.1 04:26:42 20° SW 04:27:54 25° SSW 04:30:48 10° SE visible
30 Sep -2.0 03:39:48 29° S 03:39:48 29° S 03:42:10 10° SE visible
30 Sep -1.4 05:14:09 10° SW 05:16:31 17° S 05:18:53 10° SE visible
01 Oct -0.5 02:52:51 15° SE 02:52:51 15° SE 02:53:30 10° SE visible
01 Oct -1.5 04:25:43 13° SW 04:27:32 18° S 04:30:01 10° SE visible
02 Oct -1.7 04:38:43 21° S 04:38:43 21° S 04:41:15 10° SE visible
02 Oct -1.4 06:13:44 10° SW 06:16:10 18° S 06:18:36 10° SE visible
03 Oct -0.6 03:51:42 15° SSE 03:51:42 15° SSE 03:52:30 10° SE visible
03 Oct -1.3 05:24:47 10° SW 05:27:08 17° S 05:29:29 10° SE visible
04 Oct -1.4 04:37:31 17° SSW 04:38:04 17° S 04:40:28 10° SE visible
05 Oct -0.7 03:50:29 15° SSE 03:50:29 15° SSE 03:51:32 10° SE visible
05 Oct -1.3 05:24:02 10° SW 05:26:38 20° S 05:29:13 10° ESE visible
06 Oct -1.3 04:36:18 15° SSW 04:37:32 18° S 04:39:57 10° SE visible
07 Oct -0.8 03:49:17 16° SSE 03:49:17 16° SSE 03:50:46 10° SE visible
07 Oct -1.8 05:22:56 10° SW 05:25:56 28° SSE 05:28:57 10° E visible
